Weather History for Gainesville, FL

Change the Weather History Date:

Saturday, September 22, 2012

  Actual Average Record
Temperature  
Mean Temperature 80 °F 77 °F  
Max Temperature 90 °F 87 °F 96 °F (1925)
Min Temperature 70 °F 68 °F 48 °F (1897)
Degree Days  
Heating Degree Days 0 0  
Month to date heating degree days 0 0  
Since 1 July heating degree days 0 0  
Cooling Degree Days 15 12  
Month to date cooling degree days 334 306  
Year to date cooling degree days 2592 2250  
Growing Degree Days 30 (Base 50)    
Moisture  
Dew Point 69 °F    
Average Humidity 67    
Maximum Humidity 93    
Minimum Humidity 41    
Precipitation  
Precipitation 0.00 in 0.13 in 1.87 in (2001)
Month to date precipitation 6.26 3.37  
Year to date precipitation 48.37 38.94  
Snow  
Snow 0.00 in 0.00 in 0.00 in ()
Month to date snowfall 0.0 0.0  
Since 1 July snowfall 0.0 0.0  
Since 1 September snowfall 0.0 0.0  
Snow Depth 0.00 in    
Sea Level Pressure  
Sea Level Pressure 30.01 in    
Wind  
Wind Speed 3 mph (NE)    
Max Wind Speed 12 mph    
Max Gust Speed 16 mph    
Visibility 10 miles    
Events      
T = Trace of Precipitation, MM = Missing Value Source: NWS Daily Summary

Daily Weather History Graph

Daily Weather History Graph

Search for Another Location

Airport:

Trip Planner

Search our weather history database for the weather conditions in past years. The results will help you decide how hot, cold, wet, or windy it might be!

Date:

Astronomy

Sep. 22, 2012 Rise Set
Actual Time 7:17 AM EDT 7:25 PM EDT
Civil Twilight 6:53 AM EDT 7:48 PM EDT
Nautical Twilight 6:26 AM EDT 8:16 PM EDT
Astronomical Twilight 5:58 AM EDT 8:44 PM EDT
Moon 2:08 PM EDT (9/22) No Moon Set
Length of Visible Light 12h 54m
Length of Day
12h 07m
Waxing Crescent, 48% of the Moon is Illuminated
Sep 22
Waxing Crescent
Sep 22
First Quarter
Sep 29
Full
Oct 8
Last Quarter
Oct 15
New

Hourly Weather History & Observations

Time (EDT) Temp. Heat Index Dew Point Humidity Pressure Visibility Wind Dir Wind Speed Gust Speed Precip Events Conditions
12:53 AM 73.0 °F - 70.0 °F 90% 30.00 in 10.0 mi Calm Calm - N/A   Clear
1:53 AM 72.0 °F - 70.0 °F 93% 30.00 in 10.0 mi Calm Calm - N/A   Clear
2:53 AM 72.0 °F - 69.1 °F 91% 29.99 in 10.0 mi NNW 5.8 mph - N/A   Clear
3:53 AM 71.1 °F - 69.1 °F 93% 29.99 in 10.0 mi Calm Calm - N/A   Clear
4:53 AM 71.1 °F - 70.0 °F 96% 29.99 in 10.0 mi NNW 6.9 mph - N/A   Clear
5:53 AM 71.1 °F - 69.1 °F 93% 30.00 in 10.0 mi Calm Calm - N/A   Clear
6:53 AM 71.1 °F - 69.1 °F 93% 30.02 in 10.0 mi Calm Calm - N/A   Mostly Cloudy
7:53 AM 72.0 °F - 70.0 °F 93% 30.03 in 9.0 mi Calm Calm - N/A   Overcast
8:53 AM 73.4 °F - 71.6 °F 94% 30.06 in 10.0 mi Calm Calm - N/A   Partly Cloudy
9:53 AM 78.1 °F - 73.0 °F 84% 30.06 in 10.0 mi North 3.5 mph - N/A   Clear
10:53 AM 82.9 °F 86.5 °F 69.1 °F 63% 30.05 in 10.0 mi Calm Calm - N/A   Clear
11:53 AM 86.0 °F 90.1 °F 69.1 °F 57% 30.05 in 10.0 mi Calm Calm - N/A   Partly Cloudy
12:53 PM 84.9 °F 87.6 °F 66.9 °F 55% 30.04 in 10.0 mi NE 4.6 mph - N/A   Partly Cloudy
1:53 PM 89.1 °F 92.9 °F 68.0 °F 50% 30.01 in 10.0 mi Calm Calm - N/A   Scattered Clouds
2:53 PM 88.0 °F 90.3 °F 66.0 °F 48% 29.99 in 10.0 mi North 5.8 mph - N/A   Scattered Clouds
3:53 PM 89.6 °F 92.2 °F 66.2 °F 46% 29.98 in 10.0 mi NE 4.6 mph - N/A   Partly Cloudy
4:53 PM 89.1 °F 90.0 °F 63.0 °F 42% 29.96 in 10.0 mi ENE 4.6 mph - N/A   Mostly Cloudy
5:53 PM 84.9 °F 90.1 °F 71.1 °F 63% 29.98 in 10.0 mi ESE 9.2 mph - N/A   Clear
6:53 PM 82.0 °F 86.7 °F 72.0 °F 71% 29.99 in 10.0 mi ESE 6.9 mph - N/A   Clear
7:53 PM 79.0 °F - 71.1 °F 77% 30.00 in 10.0 mi East 5.8 mph - N/A   Clear
8:53 PM 77.0 °F - 71.1 °F 82% 30.02 in 10.0 mi East 4.6 mph - N/A   Clear
9:53 PM 75.0 °F - 71.1 °F 87% 30.04 in 10.0 mi Calm Calm - N/A   Clear
10:53 PM 73.9 °F - 71.1 °F 91% 30.05 in 10.0 mi Calm Calm - N/A   Clear
11:53 PM 72.0 °F - 70.0 °F 93% 30.05 in 4.0 mi Calm Calm - N/A   Clear